FREPRT-WX Weather Reports


time (UTC)temp
C
wind
direction
speed
KPH
gust
KPH
rain 1hr
cm
rain 24hr
cm
rain mn
cm
humidity
%
barometer
mb
20260503004537 5 239 9.7 0.0 0.00 0.00 0.00 52 987.6
20260503003051 5 230 8.0 0.0 0.00 0.00 0.00 52 987.9
20260503001537 6 236 8.0 0.0 0.00 0.00 0.00 52 987.9
20260503000106 6 241 8.0 0.0 0.00 0.00 0.00 52 987.9
20260502234538 7 256 9.7 0.0 0.00 0.00 0.00 42 987.5
20260502233050 7 263 12.9 0.0 0.00 0.00 0.00 42 987.6
20260502231538 7 265 14.5 0.0 0.00 0.00 0.00 42 987.6
20260502230104 7 269 16.1 0.0 0.00 0.00 0.00 42 987.6
20260502224538 7 271 17.7 0.0 0.00 0.00 0.00 39 988.1
20260502223056 8 269 19.3 0.0 0.00 0.00 0.00 40 988.7
20260502221538 8 270 19.3 0.0 0.00 0.00 0.00 40 988.7
20260502220104 8 270 19.3 0.0 0.00 0.00 0.00 40 988.7
20260502214538 8 272 19.3 0.0 0.00 0.00 0.00 42 988.8
20260502213056 8 270 17.7 0.0 0.00 0.00 0.00 39 988.5
20260502211538 8 271 16.1 0.0 0.00 0.00 0.00 39 988.5
20260502210107 8 272 16.1 0.0 0.00 0.00 0.00 39 988.5
20260502204538 8 271 16.1 0.0 0.00 0.00 0.00 41 988.8
20260502203056 8 271 17.7 0.0 0.00 0.00 0.00 39 989.3
20260502201538 8 272 17.7 0.0 0.00 0.00 0.00 39 989.3
20260502200104 8 274 17.7 0.0 0.00 0.00 0.00 39 989.3
20260502194538 8 274 17.7 0.0 0.00 0.00 0.00 46 989.5
20260502193051 7 276 17.7 0.0 0.00 0.00 0.00 46 989.5
20260502191538 7 279 17.7 0.0 0.00 0.00 0.00 46 989.5
20260502190104 7 278 17.7 0.0 0.00 0.00 0.00 46 989.5
20260502184538 7 278 17.7 0.0 0.00 0.00 0.00 45 989.5
20260502183057 7 273 16.1 0.0 0.00 0.00 0.00 43 989.5
20260502181537 7 284 14.5 0.0 0.00 0.00 0.00 43 989.5
20260502180109 7 288 14.5 0.0 0.00 0.00 0.00 43 989.5
20260502163058 7 282 12.9 0.0 0.00 0.00 0.00 41 989.1
20260502161537 6 282 12.9 0.0 0.00 0.00 0.00 41 989.1
20260502160107 6 284 12.9 0.0 0.00 0.00 0.00 41 989.1
20260502151538 5 287 9.7 0.0 0.00 0.00 0.00 50 989.3
20260502150109 5 288 9.7 0.0 0.00 0.00 0.00 50 989.3
20260502140111 3 320 9.7 0.0 0.00 0.00 0.00 58 989.9
20260502130105 2 331 8.0 0.0 0.00 0.00 0.00 74 989.6
20260502123055 1 322 8.0 0.0 0.00 0.00 0.00 83 989.7
20260502121538 1 325 8.0 0.0 0.00 0.00 0.00 83 989.7
20260502120114 0 317 8.0 0.0 0.00 0.00 0.00 83 989.7
20260502114538 0 311 8.0 0.0 0.00 0.00 0.00 85 989.4
20260502113100 0 300 4.8 0.0 0.00 0.00 0.00 87 989.4
20260502111538 0 291 4.8 0.0 0.00 0.00 0.00 87 989.4
20260502110107 0 292 4.8 0.0 0.00 0.00 0.00 87 989.4
20260502104537 0 281 4.8 0.0 0.00 0.00 0.00 86 989.2
20260502103056 0 286 4.8 0.0 0.00 0.00 0.00 89 989.5
20260502101538 0 284 3.2 0.0 0.00 0.00 0.00 89 989.5
20260502100106 0 290 4.8 0.0 0.00 0.00 0.00 89 989.5
20260502090106 0 299 6.4 0.0 0.00 0.00 0.00 88 989.0
20260502080108 0 298 6.4 0.0 0.00 0.00 0.00 82 988.8
20260502070105 0 300 6.4 0.0 0.00 0.00 0.00 81 988.2
20260502064538 0 297 6.4 0.0 0.00 0.00 0.00 79 989.3
20260502063057 0 294 6.4 0.0 0.00 0.00 0.00 79 989.2
20260502061537 0 293 8.0 0.0 0.00 0.00 0.00 79 989.2
20260502060116 0 297 6.4 0.0 0.00 0.00 0.00 79 989.2
20260502054538 0 301 6.4 0.0 0.00 0.00 0.00 75 988.4
20260502053057 1 308 8.0 0.0 0.00 0.00 0.00 80 988.8
20260502051537 1 305 8.0 0.0 0.00 0.00 0.00 80 988.8
20260502050108 1 310 8.0 0.0 0.00 0.00 0.00 80 988.8
20260502044538 1 307 6.4 0.0 0.00 0.00 0.00 72 988.3
20260502043055 1 323 6.4 0.0 0.00 0.00 0.00 73 988.5
20260502041537 1 333 8.0 0.0 0.00 0.00 0.00 73 988.5
20260502040106 1 330 11.3 0.0 0.00 0.00 0.00 73 988.5
20260502034537 1 326 12.9 0.0 0.00 0.00 0.00 69 988.0
20260502033057 1 327 9.7 0.0 0.00 0.00 0.00 70 987.5
20260502031537 2 318 9.7 0.0 0.00 0.00 0.00 70 987.5
20260502030105 2 322 9.7 0.0 0.00 0.00 0.00 70 987.5
20260502024537 2 319 9.7 0.0 0.00 0.00 0.00 64 987.0
20260502023055 2 309 12.9 0.0 0.00 0.00 0.00 69 987.9
20260502021536 2 302 12.9 0.0 0.00 0.00 0.00 69 987.8
20260502014536 2 283 11.3 0.0 0.00 0.00 0.00 66 988.0
20260502013053 3 286 11.3 0.0 0.00 0.00 0.00 66 988.0
20260502011536 3 284 14.5 0.0 0.00 0.00 0.00 66 987.9
20260502010058 3 283 14.5 0.0 0.00 0.00 0.00 66 987.9